Home   Weather   Toulouse   Past weeks

Flag for France Past Weather in Toulouse, Midi-Pyrénées, France — Yesterday and Last 2 Weeks

Now
48 °F

Partly sunny.


Feels Like: 43 °F
Forecast: 40 / 53 °F
Wind: 12 mph from Northwest

Location: Toulouse / Blagnac

Current Time: Apr 26, 2017 at 3:39:45 pm

Latest Report: Apr 26, 2017 at 3:00 pm


Visibility: N/A

Pressure: 29.95 "Hg

Humidity: 71%

Dew Point: 39 °F

Location of ToulouseLocation

Past Weather in Toulouse — Graph

°F

Toulouse Temperature Yesterday

Maximum temperature yesterday: 66 °F (at 1:30 pm)
Minimum temperature yesterday: 50 °F (at 11:00 pm)
Average temperature yesterday: 59 °F

High & Low Weather Summary for the Past Weeks

 TemperatureHumidityPressure
High77 °F (Apr 22, 6:30 pm)94% (Apr 16, 1:00 am)30.39 "Hg (Apr 16, 1:00 am)
Low34 °F (Apr 20, 7:00 am)14% (Apr 22, 5:00 pm)29.68 "Hg (Apr 25, 5:30 pm)
Average57 °F54%30.13 "Hg
* Reported Apr 11 2:00 pm — Apr 26 2:00 pm, Toulouse, Weather by CustomWeather, © 2017

Note: Actual official high and low records may vary slightly from our data, if they occured in-between our weather recording intervals... More about our weather records

Advertising

Toulouse Weather History for the Previous 24 Hours

Scroll right to see more
 ConditionsComfort  
Time TempWeatherWind HumidityBarometerVisibility
2:00 pm
Wed, Apr 26
46 °FMostly cloudy.17 mph76%29.95 "HgN/A
1:30 pm45 °FMostly cloudy.15 mph81%29.95 "HgN/A
1:00 pm45 °FMostly cloudy.15 mph81%29.92 "HgN/A
12:30 pm45 °FMostly cloudy.16 mph87%29.92 "HgN/A
12:00 pm45 °FMostly cloudy.15 mph87%29.92 "HgN/A
11:30 am45 °FMostly cloudy.12 mph87%29.89 "HgN/A
11:00 am45 °FDrizzle. Overcast.16 mph87%29.89 "Hg6 mi
10:30 am45 °FMostly cloudy.13 mph87%29.89 "Hg6 mi
10:00 am45 °FLow clouds.17 mph87%29.86 "HgN/A
9:30 am46 °FLow clouds.15 mph87%29.86 "HgN/A
9:00 am46 °FMostly cloudy.13 mph93%29.83 "Hg6 mi
8:30 am48 °FLow clouds.14 mph87%29.83 "HgN/A
8:00 am48 °FLow clouds.9 mph87%29.83 "HgN/A
7:30 am48 °FLow clouds.8 mph87%29.80 "HgN/A
7:00 am48 °FLow clouds.9 mph87%29.80 "HgN/A
6:30 am48 °FMostly cloudy.12 mph94%29.80 "Hg4 mi
6:00 am50 °FPassing clouds.9 mph94%29.77 "HgN/A
5:30 am50 °FPartly cloudy.9 mph94%29.77 "HgN/A
5:00 am50 °FMostly cloudy.8 mph94%29.77 "HgN/A
4:30 am50 °FMostly cloudy.7 mph94%29.80 "HgN/A
4:00 am52 °FPassing clouds.7 mph88%29.77 "HgN/A
3:30 am50 °FPartly cloudy.6 mph94%29.77 "HgN/A
3:00 am52 °FPartly cloudy.7 mph88%29.77 "HgN/A
2:30 am52 °FPassing clouds.7 mph88%29.80 "HgN/A
2:00 am52 °FMostly cloudy.7 mph88%29.80 "HgN/A
1:30 am52 °FOvercast.7 mph88%29.80 "HgN/A
1:00 am52 °FMostly cloudy.6 mph88%29.80 "HgN/A
12:30 am50 °FMostly cloudy.7 mph94%29.80 "HgN/A
12:00 am50 °FPartly cloudy.7 mph94%29.80 "HgN/A
11:30 pm
Tue, Apr 25
50 °FOvercast.7 mph94%29.80 "HgN/A
11:00 pm50 °FPartly cloudy.9 mph94%29.80 "HgN/A
10:30 pm52 °FLight rain. Mostly cloudy.10 mph88%29.80 "HgN/A
10:00 pm52 °FLight rain. Partly cloudy.13 mph88%29.77 "HgN/A
9:30 pm54 °FMostly cloudy.13 mph94%29.77 "HgN/A
9:00 pm54 °FLight rain. Passing clouds.15 mph94%29.74 "HgN/A
8:30 pm54 °FLight rain. Broken clouds.14 mph94%29.74 "HgN/A
8:00 pm57 °FRain. Fog.17 mph88%29.74 "Hg3 mi
7:30 pm59 °FRain. Fog.14 mph88%29.71 "Hg2 mi
7:00 pm64 °FLight rain. Broken clouds.6 mph64%29.71 "HgN/A
6:30 pm64 °FBroken clouds.7 mph60%29.71 "HgN/A
6:00 pm64 °FBroken clouds.6 mph60%29.71 "HgN/A
5:30 pm64 °FSunny.3 mph60%29.68 "Hg10 mi
4:30 pm64 °FLight rain. More clouds than sun.9 mph64%29.71 "HgN/A
4:00 pm66 °FPartly sunny.12 mph52%29.71 "HgN/A
3:30 pm66 °FScattered clouds.13 mph52%29.71 "HgN/A
3:00 pm66 °FPartly sunny.12 mph56%29.71 "HgN/A
Weather by CustomWeather, © 2017

See weather overviewHow to use our weather pages